This is the latest recevied weather packets stored in our database for station/object KN6WGU. If no packets are shown the sender has not sent any weather packets the latest 1 day(s).
| Time | Temp. | Humidity | Pressure | Rain* | Wind** | Luminosity | Snow |
|---|---|---|---|---|---|---|---|
| 1778077876 | 11.11° C | 79% | 1004.5 hPa | 0 mm | - | 86 W/m² | - |
| 1778076668 | 11.11° C | 78% | 1004.3 hPa | 0 mm | - | 160 W/m² | - |
| 1778076062 | 11.11° C | 83% | 1004.1 hPa | 0 mm | - | 178 W/m² | - |
| 1778073939 | 10° C | 84% | 1004.1 hPa | 0 mm | - | 131 W/m² | - |
| 1778073636 | 10.56° C | 84% | 1003.6 hPa | 0 mm | - | 126 W/m² | - |
| 1778073333 | 10° C | 83% | 1003.9 hPa | 0 mm | - | 132 W/m² | - |
| 1778072424 | 10° C | 83% | 1003.6 hPa | 0 mm | - | 127 W/m² | - |
| 1778072122 | 10° C | 82% | 1003.3 hPa | 0 mm | - | 87 W/m² | - |
| 1778071215 | 9.44° C | 81% | 1003 hPa | 0 mm | - | 107 W/m² | - |
| 1778070307 | 8.89° C | 80% | 1003.1 hPa | 0 mm | - | 42 W/m² | - |
| 1778068491 | 8.89° C | 75% | 1003.2 hPa | 0 mm | - | 15 W/m² | - |
| 1778067585 | 8.89° C | 78% | 1002.9 hPa | 0 mm | - | 18 W/m² | - |
| 1778065162 | 7.78° C | 90% | 1002.2 hPa | 0 mm | - | 6 W/m² | - |
| 1778064859 | 7.78° C | 91% | 1002 hPa | 0 mm | - | 3 W/m² | - |
| 1778064556 | 7.78° C | 92% | 1001.7 hPa | 0 mm | - | 3 W/m² | - |
| 1778063952 | 7.78° C | 92% | 1001.5 hPa | 0 mm | - | 2 W/m² | - |
| 1778063346 | 7.78° C | 92% | 1001.5 hPa | 0 mm | - | 1 W/m² | - |
| 1778063044 | 7.78° C | 93% | 1001.4 hPa | 0 mm | - | 1 W/m² | - |
| 1778062437 | 7.78° C | 95% | 1002 hPa | 0 mm | - | 0 W/m² | - |
| 1778061833 | 7.22° C | 98% | 1002.1 hPa | 0 mm | - | 0 W/m² | - |
| 1778061531 | 7.78° C | 98% | 1001.8 hPa | 0 mm | - | 0 W/m² | - |
| 1778060925 | 7.78° C | 98% | 1001.2 hPa | 0 mm | - | 0 W/m² | - |
| 1778060623 | 7.78° C | 98% | 1001.2 hPa | 0 mm | - | 0 W/m² | - |
| 1778059408 | 7.78° C | 98% | 1001.4 hPa | 0 mm | - | 0 W/m² | - |
| 1778058500 | 7.78° C | 97% | 1001.9 hPa | 0 mm | - | 0 W/m² | - |
* Rain latest hour (hover to see other rain measurements)
** Current wind speed in m/s (hover to see current wind gust speed)